Location: Harburg
(48.7667°N, 10.6667°E)
Time: 15:46:42
(UTC+00:00)

Okean 1 Rocket - Pass Details

Date: 18 September 2020
Orbit: 606 x 635 km, 82.5° (Epoch: 24 October)

Event Time Altitude Azimuth Distance (km) Brightness Sun altitude
Exits shadow 19:51:18 66° 200° (SSW) 698 3.1 -23.9°
Maximum altitude 19:51:55 85° 277° (W) 645 3.0 -24.0°
Drops below altitude 10° 19:56:27 10° 9° (N) 2,034 6.0 -24.6°
Sets 19:58:43 0° 10° (N) 2,947 6.9 -24.9°
